[[{"header":{"parameterUnit":"m.s-1","parameterCategory":1,"la1":30.2991,"la2":30.254,"lo1":-89.0895,"lo2":-89.0444,"dy":0.0017,"dx":0.0017,"nx":28,"ny":28,"refTime":"2025-07-13T03:00:00:Z","depth":0,"parameterNumber":2,"parameterNumberName":"U-component_of_WINDS"},"data":[0,0,0,0,0,0,0,0,0,0,0,0,0,0,0,0,0,0,0,0,0,0,0,0,0,0,0,0,0,0,0,0,0,0,0,0,0,0,0,0,0,0,0,0,0,0,0,0,0,0,0,0,0,0,0,0,0,0,2.8545,2.8547,0,2.8673,2.8675,2.8676,2.8648,2.8646,2.8644,2.8641,2.8775,2.878,2.8786,0,0,0,0,0,0,0,0,0,0,0,0,0,2.8278,2.8283,2.8545,2.8547,2.8548,2.8673,2.8675,2.8677,2.8649,2.8646,2.8643,2.864,2.8773,2.8779,2.8786,0,0,0,0,0,0,0,0,0,0,0,0,0,2.8399,2.8284,2.8545,2.855,2.8551,2.8673,2.8675,2.8677,2.865,2.8646,2.8642,2.8639,2.877,2.8779,2.8787,2.8913,0,0,2.8814,2.8818,0,0,0,0,0,0,0,0,2.8392,2.8409,2.8547,2.8549,2.8552,2.8641,2.8629,2.8756,2.865,2.8612,2.8641,2.8637,2.8733,2.8745,2.8777,2.8919,2.8925,2.8815,2.882,2.8824,2.8826,0,0,0,0,0,0,0,2.8384,2.8403,2.8596,2.8549,2.8552,2.8546,2.8559,2.8653,2.8691,2.8615,2.8614,2.8629,2.8734,2.8768,2.878,2.8927,2.8814,2.8822,2.8827,2.8831,2.9178,2.9182,0,0,0,0,0,0,2.8373,2.8396,2.8592,2.86,2.8461,2.8553,2.8568,2.8616,2.869,2.8698,2.8632,2.8627,2.8755,2.877,2.8784,2.8936,2.8823,2.8832,2.8837,2.9174,2.9179,2.9183,0,0,0,0,0,0,2.8367,2.8391,2.8587,2.8498,2.8522,2.8562,2.8616,2.8621,2.8655,2.8703,2.871,2.866,2.8753,2.8772,2.8881,2.894,2.8836,2.8843,2.9169,2.9176,2.9181,2.924,0,0,0,0,0,0,2.836,2.8389,2.8437,2.8499,2.8527,2.8681,2.862,2.8626,2.867,2.8665,2.8731,2.8739,2.8752,2.8868,2.8889,2.895,2.885,2.9164,2.9172,2.9179,2.9233,2.9247,2.9259,0,0,0,0,0,2.835,2.8449,2.8439,2.8463,2.8587,2.8684,2.8701,2.8713,2.8675,2.8723,2.8754,2.8737,2.893,2.8879,2.8903,2.8967,2.916,2.917,2.9179,2.9227,2.9244,2.9259,0,0,0,0,0,0,2.8394,2.8457,2.8447,2.8569,2.8621,2.868,2.8741,2.8731,2.8796,2.8789,2.8802,2.8817,2.8928,2.8958,2.8901,2.9092,2.904,2.9054,2.9068,2.9085,2.9098,2.9089,2.8857,0,0,0,0,0,2.8417,2.849,2.8542,2.8644,2.8671,2.8701,2.8744,2.8749,2.8804,2.8827,2.8865,2.892,2.8993,2.9041,2.9111,2.9237,2.9251,2.9293,2.9306,2.9317,2.9329,2.9397,2.9416,2.9213,2.9213,2.9213,0,0,2.8466,2.851,2.8556,2.8653,2.8695,2.877,2.872,2.8803,2.8859,2.8839,2.8944,2.8974,2.9036,2.9154,2.9208,2.9183,2.9388,2.9328,2.9336,2.9343,2.9409,2.9428,2.9445,2.9219,2.9218,2.9217,0,0,2.8595,2.8636,2.8725,2.8767,2.883,2.885,2.8871,2.8931,2.895,2.9055,2.9042,2.9109,2.9235,2.9279,2.9319,2.9464,2.945,2.9486,2.9555,2.9622,2.9638,2.9652,2.9704,2.9722,2.9498,2.9498,2.9498,0,2.8649,2.8762,2.8772,2.8855,2.8899,2.8884,2.8974,2.9015,2.9098,2.9128,2.9099,2.9255,2.9296,2.9424,2.9459,2.9492,2.9517,2.9479,2.9635,2.9649,2.9663,2.9712,2.9731,2.9502,2.9502,2.9501,2.9501,0,2.8825,2.8903,2.8968,2.9047,2.9098,2.9184,2.9208,2.9258,2.9258,2.9281,2.9388,2.9437,2.9516,2.9546,2.9548,2.9675,2.9657,2.9632,2.9579,2.9686,2.9732,2.9751,2.9508,2.9506,2.9505,2.9504,0,0,2.8985,2.9068,2.9091,2.9127,2.9195,2.9256,2.9342,2.9418,2.9461,2.9519,2.9591,2.9697,2.9673,2.9718,2.9724,2.9783,2.9894,2.975,2.9752,2.9775,3.0036,3.0055,3.0076,2.9885,2.9889,2.9892,3.0031,0,2.9119,2.927,2.9281,2.9417,2.9489,2.9476,2.955,2.96,2.9624,2.9689,2.9716,2.9791,2.9754,2.978,2.9838,2.9868,2.9947,2.9858,2.9953,2.9956,2.9937,3.0101,3.0121,3.025,3.0049,3.0052,3.0054,0,2.9297,2.9358,2.9501,2.9558,2.9589,2.9656,2.9727,2.9789,2.9846,2.9859,2.9908,2.9906,2.9994,2.9939,3.006,3.0,3.004,3.006,3.0066,3.0075,3.0012,3.0114,3.0291,3.031,3.0083,3.0081,3.0079,0,2.9398,2.9517,2.9618,2.9649,2.9718,2.9765,2.9797,2.9849,2.9894,2.9957,2.9986,3.0058,3.0097,3.0153,3.0171,3.0128,3.0292,3.0238,3.0305,3.0305,3.034,3.0338,3.0526,3.0366,3.0366,3.0366,3.0365,0,2.9547,2.9635,2.9665,2.9727,2.9824,2.9837,2.9934,2.9962,3.0009,3.0076,3.0069,3.0133,3.0152,3.022,3.0234,3.0333,3.0351,3.0364,3.0367,3.0364,3.0363,3.039,3.0382,3.0371,3.037,3.0369,3.0368,0,2.9678,2.9701,2.981,2.9866,2.9882,2.9952,3.0,3.006,3.0082,3.0167,3.0188,3.0223,3.0302,3.0325,3.042,3.0429,3.0545,3.0539,3.0525,3.0525,3.0591,3.0585,3.0804,3.0833,3.0654,3.0656,3.0657,0,2.9771,2.9838,2.9902,2.9946,2.9979,3.005,3.0096,3.011,3.0158,3.0227,3.0279,3.0356,3.0418,3.0544,3.0579,3.0651,3.0647,3.0719,3.0658,3.0654,3.0648,3.0644,3.065,3.073,3.0732,3.0734,3.0735,0,2.9935,2.9943,3.0008,3.0078,3.0132,3.0188,3.0242,3.0279,3.0301,3.0355,3.0435,3.0483,3.0579,3.0656,3.0729,3.0762,3.0753,3.0754,3.0773,3.0772,3.076,3.0767,3.0556,3.0749,3.0747,3.0746,3.0746,3.0745,3.005,3.0108,3.0161,3.0235,3.0276,3.0326,3.0385,3.0414,3.048,3.0559,3.0564,3.065,3.0704,3.0801,3.0838,3.0906,3.0885,3.0913,3.092,3.0927,3.0932,3.075,3.0919,3.0919,3.0918,3.0918,3.0918,0,3.0212,3.0245,3.0313,3.0387,3.0445,3.043,3.0489,3.0538,3.0613,3.0665,3.0726,3.0817,3.0891,3.0931,3.1005,3.1052,3.1049,3.1071,3.1067,3.1075,3.0947,3.0922,3.1071,3.1071,3.1071,3.1071,3.1071,3.1071,3.0304,3.0402,3.0416,3.0535,3.0567,3.0651,3.0686,3.0732,3.0772,3.0874,3.0936,3.0961,3.1007,3.1084,3.1152,3.1162,3.1189,3.1213,3.122,3.11,3.1084,3.1069,3.1046,3.1219,3.1219,3.1343,3.1344,3.1345]},{"header":{"parameterUnit":"m.s-1","parameterCategory":1,"la1":30.2991,"la2":30.254,"lo1":-89.0895,"lo2":-89.0444,"dy":0.0017,"dx":0.0017,"nx":28,"ny":28,"refTime":"2025-07-13T03:00:00:Z","depth":0,"parameterNumber":3,"parameterNumberName":"V-component_of_WINDS"},"data":[0,0,0,0,0,0,0,0,0,0,0,0,0,0,0,0,0,0,0,0,0,0,0,0,0,0,0,0,0,0,0,0,0,0,0,0,0,0,0,0,0,0,0,0,0,0,0,0,0,0,0,0,0,0,0,0,0,0,-1.6162,-1.6162,0,-1.622,-1.622,-1.6221,-1.6238,-1.6238,-1.6238,-1.6237,-1.6295,-1.6297,-1.6299,0,0,0,0,0,0,0,0,0,0,0,0,0,-1.6064,-1.6066,-1.6162,-1.6162,-1.6163,-1.6219,-1.622,-1.6221,-1.6238,-1.6238,-1.6237,-1.6237,-1.6295,-1.6297,-1.6299,0,0,0,0,0,0,0,0,0,0,0,0,0,-1.6113,-1.6067,-1.6161,-1.6178,-1.618,-1.6219,-1.622,-1.6221,-1.6238,-1.6238,-1.6237,-1.6237,-1.6294,-1.6296,-1.6299,-1.6325,0,0,-1.6308,-1.6309,0,0,0,0,0,0,0,0,-1.611,-1.6116,-1.6175,-1.6177,-1.618,-1.6221,-1.6207,-1.6256,-1.6238,-1.6216,-1.6237,-1.6237,-1.6271,-1.6275,-1.6287,-1.6328,-1.633,-1.6308,-1.6309,-1.6311,-1.6311,0,0,0,0,0,0,0,-1.6107,-1.6114,-1.6184,-1.6176,-1.6179,-1.6183,-1.6189,-1.6217,-1.6245,-1.6218,-1.622,-1.6226,-1.6272,-1.6285,-1.6289,-1.6331,-1.6308,-1.631,-1.6312,-1.6313,-1.6395,-1.6396,0,0,0,0,0,0,-1.6101,-1.6111,-1.6183,-1.6186,-1.6143,-1.6185,-1.6192,-1.6208,-1.6245,-1.625,-1.6227,-1.6227,-1.628,-1.6285,-1.6291,-1.6323,-1.6311,-1.6313,-1.6315,-1.6395,-1.6395,-1.6396,0,0,0,0,0,0,-1.6099,-1.6107,-1.618,-1.6149,-1.6159,-1.6187,-1.6205,-1.621,-1.6222,-1.6251,-1.6256,-1.6234,-1.628,-1.6287,-1.6316,-1.6325,-1.6314,-1.6317,-1.6394,-1.6395,-1.6396,-1.6388,0,0,0,0,0,0,-1.6096,-1.6106,-1.6116,-1.6149,-1.616,-1.6205,-1.6206,-1.6211,-1.6227,-1.6228,-1.626,-1.6265,-1.628,-1.6312,-1.6319,-1.6329,-1.6319,-1.6393,-1.6394,-1.6395,-1.6387,-1.6388,-1.6389,0,0,0,0,0,-1.6092,-1.6111,-1.6117,-1.6125,-1.6174,-1.6206,-1.6212,-1.623,-1.6228,-1.6238,-1.6257,-1.6264,-1.6323,-1.6315,-1.6323,-1.6334,-1.6393,-1.6394,-1.6395,-1.6387,-1.6388,-1.6389,0,0,0,0,0,0,-1.6078,-1.6116,-1.6122,-1.6153,-1.6176,-1.6208,-1.6222,-1.623,-1.6254,-1.6254,-1.6274,-1.6281,-1.6309,-1.6325,-1.6315,-1.6361,-1.6358,-1.6361,-1.6349,-1.6351,-1.6351,-1.6347,-1.6321,0,0,0,0,0,-1.6079,-1.6102,-1.6134,-1.6157,-1.6169,-1.6193,-1.6208,-1.622,-1.6244,-1.6254,-1.6275,-1.6298,-1.6322,-1.6337,-1.6361,-1.639,-1.6397,-1.6401,-1.6402,-1.6403,-1.6405,-1.6421,-1.6423,-1.64,-1.64,-1.64,0,0,-1.608,-1.6103,-1.6117,-1.6155,-1.6174,-1.6197,-1.6201,-1.6226,-1.6243,-1.6257,-1.6286,-1.6303,-1.633,-1.6359,-1.6373,-1.6373,-1.6413,-1.6404,-1.6405,-1.6406,-1.6423,-1.6425,-1.6427,-1.6401,-1.6401,-1.6401,0,0,-1.6094,-1.6114,-1.6136,-1.6156,-1.6185,-1.6201,-1.6207,-1.6238,-1.625,-1.6279,-1.6291,-1.6312,-1.6352,-1.6371,-1.6386,-1.6408,-1.6415,-1.6415,-1.6419,-1.6435,-1.6437,-1.6438,-1.6446,-1.6448,-1.6417,-1.6417,-1.6417,0,-1.6091,-1.6127,-1.6146,-1.617,-1.6187,-1.6202,-1.6224,-1.6242,-1.6277,-1.6288,-1.6287,-1.6339,-1.6359,-1.6393,-1.6398,-1.641,-1.6416,-1.6411,-1.6435,-1.6437,-1.6439,-1.6446,-1.6449,-1.6417,-1.6417,-1.6417,-1.6417,0,-1.6122,-1.6146,-1.6161,-1.6195,-1.6213,-1.6236,-1.6259,-1.6275,-1.6285,-1.6302,-1.6332,-1.6356,-1.6385,-1.6394,-1.6404,-1.6429,-1.6428,-1.6431,-1.6429,-1.644,-1.6447,-1.645,-1.6417,-1.6417,-1.6417,-1.6417,0,0,-1.6127,-1.6173,-1.6178,-1.6194,-1.6228,-1.6247,-1.627,-1.6299,-1.6312,-1.6336,-1.6356,-1.6391,-1.6394,-1.6411,-1.6424,-1.6438,-1.6453,-1.6439,-1.644,-1.644,-1.6482,-1.6479,-1.6481,-1.6458,-1.6459,-1.6459,-1.6479,0,-1.6145,-1.6188,-1.6207,-1.6241,-1.6264,-1.6279,-1.63,-1.6322,-1.6338,-1.636,-1.6377,-1.6402,-1.6404,-1.6414,-1.6429,-1.6448,-1.6461,-1.6447,-1.6476,-1.6477,-1.6468,-1.6485,-1.6482,-1.65,-1.6482,-1.6483,-1.6483,0,-1.6171,-1.6196,-1.6233,-1.6264,-1.6274,-1.6292,-1.632,-1.6341,-1.6367,-1.6378,-1.6397,-1.6409,-1.6434,-1.6431,-1.6466,-1.6456,-1.6469,-1.648,-1.6481,-1.6484,-1.648,-1.6488,-1.6506,-1.6508,-1.6488,-1.6487,-1.6487,0,-1.6171,-1.6213,-1.6241,-1.6254,-1.6291,-1.6304,-1.632,-1.6346,-1.6362,-1.6386,-1.6397,-1.6424,-1.6438,-1.6459,-1.6478,-1.6474,-1.651,-1.6509,-1.6519,-1.6519,-1.6526,-1.6525,-1.6545,-1.6535,-1.6535,-1.6535,-1.6535,0,-1.6188,-1.621,-1.6241,-1.6258,-1.6283,-1.6304,-1.6328,-1.6345,-1.6368,-1.6388,-1.6403,-1.6422,-1.6446,-1.6467,-1.6482,-1.6509,-1.6515,-1.6524,-1.6528,-1.6522,-1.6521,-1.6531,-1.653,-1.6536,-1.6536,-1.6536,-1.6536,0,-1.6191,-1.6213,-1.6244,-1.6278,-1.6286,-1.6303,-1.6331,-1.6348,-1.6365,-1.6391,-1.6398,-1.6424,-1.6451,-1.6472,-1.6506,-1.6516,-1.6543,-1.6548,-1.6535,-1.6536,-1.6545,-1.6544,-1.6572,-1.6577,-1.6564,-1.6564,-1.6564,0,-1.62,-1.6218,-1.6253,-1.6268,-1.6284,-1.6307,-1.6324,-1.6346,-1.6363,-1.6394,-1.6407,-1.6434,-1.6457,-1.6499,-1.6521,-1.6547,-1.6552,-1.656,-1.6556,-1.655,-1.6551,-1.655,-1.6551,-1.656,-1.656,-1.656,-1.656,0,-1.6214,-1.6224,-1.6248,-1.6276,-1.6296,-1.6318,-1.6342,-1.6353,-1.6379,-1.6397,-1.6424,-1.6442,-1.6477,-1.6504,-1.6533,-1.6549,-1.6559,-1.6561,-1.6565,-1.6559,-1.6551,-1.6555,-1.6535,-1.656,-1.656,-1.656,-1.656,-1.656,-1.622,-1.6236,-1.6264,-1.629,-1.631,-1.6331,-1.6348,-1.6368,-1.6391,-1.6422,-1.6433,-1.6461,-1.6487,-1.6527,-1.6543,-1.6565,-1.6566,-1.6571,-1.6573,-1.6574,-1.6573,-1.6548,-1.6571,-1.6571,-1.6571,-1.6571,-1.6571,0,-1.6234,-1.6253,-1.6277,-1.6309,-1.6329,-1.6338,-1.6364,-1.638,-1.6404,-1.6428,-1.6451,-1.6482,-1.6508,-1.6533,-1.656,-1.6573,-1.6578,-1.658,-1.6578,-1.6582,-1.657,-1.6564,-1.6575,-1.6575,-1.6575,-1.6575,-1.6575,-1.6575,-1.6244,-1.6271,-1.6285,-1.6322,-1.6341,-1.6368,-1.6382,-1.6402,-1.6421,-1.6455,-1.6478,-1.6494,-1.6518,-1.6547,-1.6572,-1.6578,-1.6587,-1.6587,-1.6595,-1.6584,-1.6583,-1.6582,-1.6576,-1.6589,-1.6589,-1.6605,-1.6605,-1.6605]}]]